Wetbulb
48.65 48.04 47.53 47.05 46.51 46.40 46.27 45.86 44.93 44.73 44.91 45.06 44.74 44.74 44.79 44.61 44.38 44.31 44.50 44.68 44.46 44.57 44.60 44.87 45.03 45.19 45.36 45.54 45.36 45.26 45.17 45.28 45.10 44.47 43.92 43.69 43.92 44.03 44.01 44.02 44.10 44.06 44.06 44.05 44.03 43.99 43.90 43.90 43.71 43.40 43.20 43.19 43.14 43.21 43.33 43.57 43.57 43.19 42.77 42.46 42.27 42.25 42.32 42.18 42.19 42.27 42.29 42.34 42.35
47.95 47.57 46.87 45.58 45.07 45.49 45.79 45.19 44.35 44.06 44.33 45.05 44.98 44.98 44.93 44.71 44.46 44.50 44.57 44.74 44.80 44.91 44.91 45.05 45.05 45.10 45.10 44.95 44.94 44.96 44.86 44.77 44.61 44.26 43.99 43.71 43.70 43.75 43.71 43.85 43.85 43.76 43.88 43.93 43.83 43.64 43.54 43.61 43.37 43.05 42.85 42.78 42.69 42.61 42.75 43.12 43.19 42.83 42.41 42.27 42.13 42.13 42.06 41.91 42.03 42.18 42.29 42.24 42.38
47.81 47.54 46.87 46.02 45.64 45.45 45.29 44.93 44.46 44.43 44.68 45.26 45.52 45.33 45.01 44.78 44.66 44.56 44.56 44.82 45.03 45.05 44.91 44.68 44.92 44.82 44.77 44.86 44.98 44.92 44.83 44.56 44.31 44.05 43.70 43.42 43.26 43.14 43.13 43.01 43.21 43.14 43.18 43.28 43.32 43.20 43.06 43.30 42.76 42.24 42.04 42.20 42.12 42.09 42.18 42.60 42.69 42.31 42.03 41.89 41.85 41.75 41.59 41.52 41.82 42.08 42.18 42.04 42.29
48.05 47.26 46.36 45.42 45.04 45.17 45.24 45.19 45.09 45.17 45.43 45.66 45.65 45.46 45.19 45.00 44.86 44.79 44.79 44.91 44.91 44.71 44.54 44.24 44.65 44.90 44.98 44.81 44.73 44.63 44.36 43.60 43.48 43.35 43.07 42.88 42.85 42.87 42.87 42.82 42.83 42.95 43.06 43.13 43.06 42.89 42.92 43.07 42.49 42.05 41.80 41.87 41.89 41.74 41.75 41.95 42.10 41.98 41.73 41.88 41.91 41.68 41.59 41.38 41.68 41.89 41.89 41.82 42.15
47.84 46.93 46.10 45.32 45.26 45.69 45.99 45.97 45.72 45.59 45.52 45.53 45.16 44.75 44.63 44.71 44.87 44.87 44.70 44.45 44.21 44.04 44.13 44.35 44.43 44.73 44.89 44.61 44.22 43.99 43.74 43.30 42.15 42.28 42.79 42.65 42.70 42.85 42.93 42.88 42.74 42.68 42.84 42.97 42.89 42.81 42.75 42.77 42.17 41.87 41.62 41.64 41.37 41.31 41.53 41.91 41.84 41.69 41.68 41.82 41.88 41.84 41.77 41.61 41.75 41.82 41.89 41.68 41.89
47.04 46.63 46.50 46.41 46.46 46.48 46.47 46.18 45.78 45.33 45.13 45.01 44.25 44.02 44.01 44.26 44.38 44.26 44.12 43.70 43.81 43.92 43.96 43.70 43.80 43.71 43.65 43.83 43.63 43.30 43.30 43.30 42.91 42.75 42.82 42.83 42.86 42.84 42.75 42.70 42.71 42.76 42.69 42.58 42.68 42.63 42.58 42.25 41.72 41.49 41.57 41.41 41.39 41.52 41.75 41.99 41.62 41.49 41.40 41.49 41.74 41.84 41.91 41.74 41.82 41.92 41.92 41.68 41.73
46.41 46.17 46.24 46.57 46.61 46.29 45.83 45.45 45.27 44.97 44.66 44.29 43.77 43.55 43.60 43.77 43.91 43.78 43.56 43.46 43.44 43.39 43.09 42.70 42.84 42.98 42.96 43.18 42.96 42.81 42.74 42.65 42.77 42.77 42.70 42.38 42.38 42.31 42.35 42.27 42.34 42.25 42.13 42.13 42.02 42.08 41.97 41.95 41.26 40.81 40.60 40.50 40.81 41.33 41.78 41.84 41.57 41.30 41.08 41.00 41.42 41.79 42.01 42.13 42.23 42.15 42.02 42.02 41.91
46.08 45.83 45.59 45.54 45.49 45.15 44.83 44.55 44.35 44.06 43.75 43.55 43.49 43.49 43.56 43.53 43.31 43.13 42.98 42.86 42.69 42.63 42.67 42.56 42.89 42.98 42.74 42.53 42.41 42.32 42.25 42.27 42.18 42.34 42.33 42.20 42.13 42.05 41.95 41.87 41.89 41.80 41.83 41.80 41.61 41.54 41.45 41.34 40.90 40.68 40.66 40.65 40.62 41.03 41.54 41.83 41.69 41.37 41.19 41.11 41.36 41.63 41.91 42.00 42.35 42.21 42.03 42.03 41.85
45.47 45.22 45.26 44.91 44.68 44.45 44.12 43.85 43.84 43.55 43.25 43.18 43.25 43.42 43.32 43.18 42.99 42.68 42.39 42.10 42.08 42.22 42.42 42.32 42.63 42.68 42.49 42.18 42.19 42.17 42.10 42.02 41.96 41.97 41.88 41.87 41.73 41.49 41.45 41.42 41.34 41.34 41.42 41.45 41.39 41.30 41.15 40.80 40.50 40.51 40.41 40.38 40.31 40.62 41.08 41.56 41.34 41.13 41.02 40.92 40.98 41.31 41.61 41.78 42.03 41.99 41.78 41.62 41.47
44.40 44.40 44.31 44.09 44.03 43.85 43.63 43.64 43.35 43.24 43.03 42.72 42.93 42.96 42.63 41.70 41.89 41.99 42.04 41.82 42.19 42.34 42.32 42.39 42.53 42.48 42.40 42.23 42.24 42.14 42.10 42.10 41.86 41.75 41.59 41.33 41.10 40.96 40.83 40.67 40.70 40.61 40.68 40.91 40.98 40.89 40.71 40.28 40.05 40.01 40.15 40.15 40.28 40.46 40.73 40.98 40.72 40.59 40.39 40.22 40.45 40.72 41.03 41.32 41.46 41.46 41.28 41.08 41.10
43.66 43.48 43.53 43.43 43.55 43.33 43.09 43.12 42.91 42.77 42.63 42.44 42.41 42.34 42.21 41.47 41.75 41.79 41.93 42.15 42.25 42.18 42.25 42.56 42.55 42.40 42.20 42.12 42.03 41.96 41.91 41.76 41.60 41.23 40.96 40.68 40.45 40.31 40.33 40.19 40.10 39.96 39.96 40.12 40.35 40.25 39.99 39.62 39.55 39.65 39.67 39.72 39.92 40.05 40.12 40.25 40.15 39.96 39.81 39.73 39.96 40.04 40.19 40.40 40.58 40.74 40.75 40.68 40.74
43.09 43.09 43.08 43.22 43.42 43.13 42.80 42.62 42.45 42.40 42.23 42.03 41.87 41.89 41.89 41.96 42.01 42.04 41.91 42.11 41.82 41.84 41.96 42.24 42.23 42.00 41.79 41.65 41.75 41.58 41.37 41.37 41.08 40.78 40.50 40.29 40.19 40.06 39.94 39.78 39.71 39.58 39.61 39.64 39.79 39.62 39.35 39.14 38.95 38.86 38.94 39.23 39.33 39.43 39.55 39.54 39.41 39.34 39.19 39.27 39.38 39.30 39.27 39.50 39.91 40.02 40.13 40.32 40.31
42.74 42.89 43.04 43.16 43.07 42.93 42.58 42.21 42.13 42.03 41.91 41.67 41.62 41.60 41.64 41.74 41.87 41.87 41.84 41.84 41.54 41.62 41.75 41.94 41.99 41.89 41.76 41.52 41.55 41.41 41.35 41.06 40.83 40.56 40.22 39.99 39.92 39.81 39.65 39.51 39.47 39.32 39.37 39.44 39.66 39.43 39.04 38.82 38.73 38.43 38.36 38.50 38.66 38.87 39.14 39.21 38.95 38.76 38.61 38.65 38.69 38.72 38.72 38.99 39.30 39.61 39.83 39.91 39.65
42.76 42.88 42.90 43.01 42.85 42.59 42.28 41.96 41.71 41.61 41.56 41.33 41.41 41.47 41.64 41.82 41.78 41.66 41.66 41.66 41.58 41.58 41.75 41.91 41.79 41.76 41.67 41.69 41.55 41.32 41.20 40.90 40.69 40.42 40.09 39.84 39.75 39.62 39.41 39.30 39.30 39.16 39.14 39.27 39.51 39.38 39.01 38.58 38.53 38.38 38.24 38.16 38.33 38.53 38.84 38.92 38.65 38.49 38.34 38.22 38.18 38.22 38.45 38.64 38.99 39.23 39.27 39.11 38.99
42.86 42.87 42.88 42.74 42.44 42.25 41.89 41.47 41.28 41.13 41.08 40.99 41.32 41.60 41.67 41.71 41.59 41.55 41.67 41.89 41.89 41.94 41.91 41.82 41.70 41.61 41.69 41.82 41.55 41.34 41.22 40.92 40.53 40.23 39.89 39.62 39.55 39.43 39.27 39.09 39.00 38.99 38.99 39.03 39.21 39.26 39.02 38.72 38.58 38.41 38.23 38.14 38.18 38.29 38.45 38.53 38.53 38.41 38.26 38.18 38.06 38.06 38.09 38.36 38.59 38.47 38.38 38.25 38.17
42.81 42.74 42.60 42.39 41.94 41.68 41.33 41.10 41.00 40.95 40.92 40.99 41.38 41.57 41.62 41.53 41.65 41.81 41.94 42.20 42.20 42.11 42.04 41.82 41.75 41.75 41.75 41.56 41.61 41.38 41.19 40.82 40.56 40.12 39.68 39.48 39.34 39.22 39.08 38.92 38.78 38.78 38.82 38.66 38.78 38.81 38.93 38.89 38.79 38.64 38.41 38.26 38.15 38.07 38.22 38.27 38.26 38.29 38.21 38.09 38.01 37.89 37.81 37.76 37.64 37.66 37.65 37.74 37.50
42.74 42.53 42.22 41.96 41.54 41.10 40.91 40.75 40.82 40.81 40.99 41.21 41.52 41.57 41.54 41.64 41.89 41.79 41.61 41.76 41.99 42.05 41.88 41.82 41.76 41.69 41.59 41.37 41.46 41.33 41.11 40.74 40.35 39.96 39.62 39.35 39.17 39.01 38.87 38.73 38.68 38.68 38.61 38.44 38.38 38.35 38.47 38.62 38.84 38.76 38.69 38.46 38.27 38.15 38.12 38.04 38.06 37.97 37.92 37.72 37.63 37.50 37.34 37.11 36.98 36.84 36.81 36.74 36.51
42.39 42.08 41.89 41.54 41.10 40.89 40.70 40.68 40.86 40.99 41.22 41.41 41.52 41.59 41.74 41.85 41.86 41.73 41.61 41.61 41.92 41.98 41.80 41.89 41.88 41.88 41.73 41.71 41.64 41.31 40.98 40.77 40.36 39.99 39.74 39.48 39.28 39.06 38.80 38.73 38.59 38.59 38.52 38.37 38.22 38.12 38.02 38.14 38.37 38.50 38.46 38.45 38.29 38.18 38.02 37.90 37.69 37.48 37.42 37.25 37.15 37.02 36.89 36.65 36.53 36.25 36.00 35.78 35.52
42.08 41.80 41.51 41.16 41.07 40.95 40.86 40.86 41.08 41.21 41.48 41.52 41.62 41.67 41.78 41.86 41.87 41.82 41.81 41.81 41.87 41.96 41.84 41.80 41.88 41.88 41.81 41.73 41.62 41.14 40.66 40.60 40.43 40.10 39.85 39.70 39.39 39.19 38.93 38.77 38.62 38.55 38.49 38.26 38.16 38.07 38.09 38.11 38.23 38.23 38.18 38.06 37.97 37.92 37.71 37.55 37.26 37.09 36.95 36.84 36.58 36.37 36.04 35.93 35.68 35.41 35.17 34.88 34.54
41.72 41.48 41.27 41.26 41.35 41.41 41.35 41.35 41.38 41.52 41.69 41.67 41.78 41.72 41.80 41.92 41.98 41.76 41.59 41.62 41.86 42.05 42.06 41.81 41.62 41.59 41.59 41.54 41.39 41.08 40.80 40.71 40.55 40.23 39.98 39.77 39.45 39.06 38.94 38.66 38.59 38.48 38.38 38.26 38.13 38.03 38.00 37.96 38.00 37.99 37.79 37.66 37.42 37.29 37.23 36.98 36.91 36.73 36.42 36.15 35.73 35.39 35.06 34.78 34.66 34.43 34.34 34.04 33.90
41.54 41.46 41.38 41.60 41.67 41.60 41.66 41.79 41.82 41.81 41.75 41.79 41.80 41.91 41.99 42.11 42.01 41.81 41.74 41.80 42.06 42.23 42.03 41.81 41.54 41.39 41.24 41.19 40.96 40.96 40.85 40.57 40.54 40.34 39.99 39.75 39.30 38.98 38.82 38.60 38.41 38.19 38.12 37.99 37.96 37.89 37.74 37.66 37.77 37.68 37.59 37.26 36.98 36.84 36.74 36.44 36.17 35.78 35.31 34.89 34.42 34.24 34.14 33.88 33.80 33.80 33.67 33.43 33.33
41.46 41.52 41.60 41.64 41.74 41.79 41.82 41.87 41.77 41.76 41.75 41.75 41.99 42.10 42.12 42.20 42.06 42.10 42.20 42.38 42.28 42.12 41.84 41.65 41.37 41.16 41.14 41.03 40.80 40.77 40.70 40.47 40.56 40.32 40.01 39.61 39.18 38.95 38.72 38.57 38.34 38.07 37.85 37.66 37.66 37.70 37.77 37.68 37.71 37.59 37.26 36.86 36.66 36.47 36.20 35.65 34.96 34.41 33.85 33.59 33.35 33.20 33.14 33.02 33.25 33.25 33.10 33.27 33.20
41.49 41.53 41.62 41.66 41.76 41.46 41.29 41.41 41.50 41.47 41.54 41.69 41.96 42.21 42.35 42.26 42.29 42.35 42.46 42.44 42.03 41.83 41.69 41.45 41.37 41.32 41.27 41.12 41.02 40.83 40.52 40.40 40.25 39.97 39.69 39.42 39.11 38.88 38.76 38.53 38.23 37.93 37.70 37.58 37.66 37.69 37.53 37.51 37.59 37.54 37.31 36.84 36.51 36.16 35.71 35.03 34.14 33.33 32.76 32.36 32.28 32.16 32.23 32.43 32.58 32.65 32.61 32.73 32.94
41.47 41.55 41.64 41.75 41.61 41.41 41.30 41.21 41.16 41.26 41.33 41.46 41.81 41.99 42.22 42.27 42.35 42.39 42.40 42.21 42.06 41.79 41.73 41.53 41.61 41.49 41.40 41.30 41.03 40.80 40.40 39.89 39.53 39.30 39.18 39.07 38.87 38.65 38.49 38.30 38.00 37.89 37.69 37.67 37.54 37.37 37.24 36.73 36.95 37.04 36.89 36.68 36.22 35.83 35.17 34.28 33.25 32.46 31.75 31.32 31.17 31.16 31.36 31.76 31.90 31.92 31.94 32.15 32.24
41.30 41.31 41.31 41.40 41.23 41.16 41.09 41.03 40.98 41.05 41.26 41.56 41.67 41.84 41.78 41.97 42.03 42.14 42.13 42.06 41.99 41.91 41.75 41.72 41.64 41.64 41.43 41.12 40.84 40.60 40.17 39.65 39.09 38.78 38.58 38.43 38.44 38.41 38.18 37.96 37.77 37.69 37.53 37.15 36.55 36.25 35.85 35.43 35.91 36.08 35.87 35.62 35.12 34.37 33.80 32.96 32.21 31.64 31.08 30.60 30.44 30.34 30.43 30.70 31.01 31.27 31.41 31.57 31.69
41.13 41.20 41.05 41.10 41.05 40.91 40.88 40.98 41.11 41.25 41.41 41.54 41.56 41.48 41.39 41.47 41.71 41.86 41.81 41.59 41.72 41.85 41.81 41.65 41.73 41.40 40.91 40.84 40.44 40.12 39.76 39.29 38.82 38.47 38.04 37.81 37.89 37.82 37.65 37.39 37.30 37.40 37.35 36.71 35.88 35.30 35.22 35.41 35.08 34.72 34.48 34.69 33.86 33.02 32.21 31.74 31.44 31.19 30.85 30.47 30.11 29.97 29.95 30.02 30.29 30.61 30.93 31.26 31.57
40.96 41.03 40.99 41.11 41.02 40.88 40.97 41.13 41.24 41.33 41.38 41.38 41.24 41.20 41.13 41.12 41.20 41.34 41.25 41.19 41.49 41.85 41.89 41.60 41.79 41.14 40.56 40.62 40.22 39.71 39.17 38.80 38.60 38.26 37.91 37.53 37.25 37.14 36.97 36.84 36.90 37.02 36.91 36.22 35.42 35.08 35.07 35.22 35.01 34.42 34.02 33.87 33.22 32.33 31.53 31.01 30.93 30.88 30.64 30.27 30.09 30.03 30.05 30.02 30.09 30.22 30.45 30.95 31.35
41.07 41.11 41.11 41.05 40.84 40.91 41.06 41.26 41.09 41.11 41.11 41.09 41.12 41.09 41.04 41.02 40.88 40.81 40.77 40.80 40.96 41.16 41.28 41.03 41.22 40.82 40.35 39.92 39.40 38.98 38.56 38.26 37.96 37.74 37.54 37.31 37.00 36.79 36.54 36.30 36.53 36.56 36.34 35.68 35.30 35.13 35.09 35.12 34.81 34.25 33.63 32.77 32.62 32.09 31.38 30.79 30.52 30.35 30.21 30.02 29.95 30.12 30.28 30.44 30.21 30.20 30.26 30.57 30.84
41.12 41.26 41.13 40.90 40.86 40.99 41.14 41.17 41.02 41.10 41.15 41.26 41.15 41.15 41.05 40.82 40.58 40.44 40.38 40.39 40.36 40.21 40.17 40.17 40.09 39.77 39.38 38.73 38.57 38.41 38.15 37.92 37.55 37.29 37.06 36.97 36.64 36.47 36.30 36.15 36.15 35.84 35.46 35.04 35.12 35.13 35.01 34.65 34.17 33.65 33.13 32.58 32.02 31.51 31.04 30.52 30.15 29.98 29.94 29.85 29.93 30.05 30.29 30.62 30.54 30.53 30.61 30.51 30.52
41.20 41.18 41.12 41.07 41.14 41.13 41.12 41.17 41.33 41.37 41.45 41.48 41.22 40.97 40.73 40.45 40.22 40.15 39.91 39.84 39.80 39.68 39.56 39.69 39.34 38.88 38.42 38.11 37.88 37.62 37.36 37.11 37.03 36.88 36.66 36.56 36.18 35.87 35.74 35.65 35.79 35.80 35.52 34.92 34.94 34.91 34.53 33.98 33.38 32.90 32.49 32.14 31.48 31.04 30.55 30.20 29.88 29.71 29.73 29.72 30.02 30.14 30.29 30.38 30.75 30.93 30.98 30.84 30.90
41.01 40.97 41.05 41.08 41.14 41.14 41.32 41.49 41.67 41.81 41.70 41.42 40.89 40.54 40.13 39.79 39.68 39.72 39.59 39.67 39.55 39.32 39.13 39.24 38.84 38.42 37.92 37.58 37.21 36.88 36.66 36.51 36.40 36.26 36.07 35.80 35.24 35.15 35.39 35.54 35.75 35.62 35.38 34.91 34.65 34.30 33.82 33.28 32.73 32.33 31.96 31.58 30.97 30.74 30.45 30.06 29.97 29.80 29.77 29.73 30.05 30.26 30.38 30.38 30.45 30.65 30.75 30.98 30.85
40.89 40.92 41.02 41.12 41.19 41.35 41.42 41.57 41.67 41.64 41.49 41.05 40.49 40.15 39.80 39.53 39.56 39.71 39.70 39.62 39.40 39.10 38.83 38.44 38.00 37.51 37.18 36.86 36.49 36.30 36.09 35.94 35.79 35.72 35.46 35.31 35.12 35.15 35.25 35.39 35.70 35.47 34.99 34.61 34.03 33.48 32.98 32.65 32.21 31.89 31.55 31.32 30.73 30.67 30.59 30.37 30.16 30.04 30.12 30.13 30.36 30.43 30.54 30.55 30.70 30.91 31.06 30.86 30.61
41.14 41.15 41.03 41.05 41.22 41.39 41.36 41.40 41.38 41.14 40.95 40.48 40.20 39.89 39.62 39.61 39.53 39.60 39.60 39.41 38.99 38.64 38.19 37.55 37.07 36.55 36.19 35.92 35.70 35.56 35.51 35.40 35.21 35.13 35.02 34.94 34.97 35.00 35.02 35.05 35.60 35.19 34.47 33.85 33.28 32.80 32.41 32.08 31.81 31.63 31.43 31.23 30.95 30.86 30.76 30.63 30.39 30.29 30.45 30.55 30.72 30.95 31.12 31.21 31.20 31.26 31.32 31.30 31.24
41.76 41.50 41.28 41.11 41.03 41.05 41.02 40.99 40.87 40.64 40.28 39.97 39.77 39.69 39.58 39.50 39.38 39.11 39.00 38.65 38.38 38.07 37.62 37.06 36.58 36.15 35.86 35.67 35.32 35.16 35.02 34.81 35.05 35.10 35.17 35.24 35.11 34.90 34.79 34.72 35.01 34.59 33.84 33.13 32.71 32.33 31.99 31.81 31.65 31.58 31.49 31.16 31.21 31.16 30.97 30.84 30.66 30.66 30.58 30.80 30.99 31.32 31.55 31.71 31.84 31.85 31.74 31.72 31.56
41.82 41.59 41.39 41.12 40.90 40.79 40.67 40.52 40.40 40.13 39.77 39.53 39.48 39.40 39.41 39.26 39.03 38.76 38.42 37.85 37.44 37.17 36.94 36.65 36.32 36.00 35.79 35.61 35.40 35.16 34.96 35.09 35.02 34.98 35.08 35.25 35.06 34.60 34.14 33.97 34.16 33.75 33.17 32.53 32.28 31.96 31.74 31.70 31.63 31.56 31.56 31.16 31.12 31.12 31.10 30.90 30.76 30.76 30.84 30.91 31.14 31.45 31.73 32.05 32.04 32.19 32.19 32.15 32.00
41.50 41.47 41.53 41.32 40.84 40.60 40.36 40.13 39.89 39.58 39.37 39.39 39.35 39.27 39.13 38.99 38.73 38.46 37.96 37.07 36.59 36.33 36.03 35.85 35.60 35.32 35.12 34.88 35.00 34.73 34.72 34.91 34.73 34.85 35.04 35.22 34.88 34.10 33.38 32.99 33.22 32.91 32.49 32.09 31.95 31.79 31.70 31.63 31.65 31.57 31.48 31.26 31.20 31.16 31.12 31.03 30.86 30.85 30.89 30.92 31.16 31.57 31.91 32.15 32.30 32.55 32.65 32.58 32.45
41.05 41.19 41.24 41.03 40.52 40.24 40.05 39.81 39.54 39.14 38.97 39.05 38.97 38.82 38.59 38.34 38.12 37.81 37.32 36.44 35.93 35.50 35.12 34.94 34.73 34.53 34.35 34.30 34.28 34.34 34.46 34.53 34.46 34.49 34.71 34.76 34.20 33.38 32.44 31.81 32.01 31.89 31.74 31.70 31.65 31.70 31.63 31.65 31.66 31.59 31.48 31.18 31.07 31.19 31.26 31.10 30.99 30.91 30.97 31.00 31.32 31.74 32.24 32.41 32.65 32.90 33.00 32.90 32.88
40.46 40.61 40.56 40.36 39.93 39.65 39.62 39.46 39.14 38.90 38.62 38.53 38.52 38.38 38.19 37.74 37.33 36.91 36.33 35.44 35.19 34.74 34.32 34.22 34.08 34.08 34.07 34.22 34.11 34.35 34.57 34.65 34.43 34.39 34.35 34.26 33.57 32.50 31.58 30.99 31.18 31.26 31.30 31.53 31.55 31.63 31.73 31.76 31.81 31.67 31.42 30.98 31.22 31.31 31.34 31.12 30.87 30.82 30.90 31.05 31.40 32.06 32.63 32.90 33.10 33.28 33.46 33.39 33.20
39.90 39.79 39.61 39.38 39.34 39.27 39.11 39.03 38.75 38.55 38.40 38.29 38.11 37.81 37.40 36.95 36.48 36.07 35.68 35.12 34.84 34.46 34.01 33.74 33.67 33.83 33.97 33.90 33.77 33.89 34.21 34.62 34.54 34.25 33.95 33.67 32.96 31.97 30.97 30.38 30.79 31.10 31.36 31.45 31.54 31.67 31.76 32.00 32.06 32.10 31.91 31.48 31.57 31.60 31.52 31.14 30.88 30.92 31.03 31.23 31.57 32.17 32.85 33.27 33.47 33.59 33.79 34.05 34.12
39.72 39.56 39.48 39.25 39.21 39.07 38.88 38.50 38.45 38.41 38.34 37.96 37.47 37.03 36.59 36.07 35.58 35.44 35.23 34.91 34.80 34.53 34.05 33.70 33.70 33.72 33.67 33.30 33.34 33.49 33.79 34.10 34.29 34.24 33.72 32.95 32.22 31.47 30.80 30.28 30.57 31.02 31.42 31.55 31.72 31.97 32.15 32.32 32.52 32.52 32.42 31.89 31.99 31.80 31.62 31.36 31.01 30.95 31.09 31.36 31.77 32.16 32.52 33.17 33.44 33.68 33.92 34.41 34.64
39.79 39.65 39.34 39.10 39.05 38.95 38.53 38.31 38.23 38.15 38.00 37.44 36.81 36.15 35.65 35.19 34.98 34.98 34.94 34.70 34.53 34.29 33.98 33.59 33.59 33.65 33.46 33.00 33.13 33.31 33.42 33.46 33.52 33.44 33.03 32.19 31.54 31.12 30.82 30.57 30.74 31.06 31.52 31.94 32.15 32.39 32.54 32.80 32.91 32.91 32.64 31.93 32.03 31.95 31.64 31.37 31.13 30.99 31.13 31.44 31.75 31.74 31.74 32.17 32.68 33.12 33.64 34.26 34.65
MSLP
1013.16 1013.40 1013.60 1013.80 1014.04 1014.20 1014.40 1014.56 1014.80 1014.92 1015.00 1015.08 1015.16 1015.32 1015.44 1015.60 1015.72 1015.88 1015.96 1016.04 1016.08 1016.12 1016.16 1016.16 1016.20 1016.24 1016.32 1016.32 1016.36 1016.36 1016.36 1016.40 1016.40 1016.40 1016.40 1016.36 1016.32 1016.32 1016.32 1016.32 1016.24 1016.20 1016.16 1016.08 1016.04 1016.00 1015.92 1015.88 1015.84 1015.72 1015.60 1015.52 1015.44 1015.36 1015.32 1015.24 1015.20 1015.16 1015.00 1014.92 1014.80 1014.68 1014.56 1014.44 1014.32 1014.20 1014.12 1014.04 1013.92
1013.24 1013.44 1013.72 1013.96 1014.16 1014.32 1014.48 1014.72 1014.92 1015.08 1015.16 1015.24 1015.32 1015.44 1015.60 1015.72 1015.84 1015.92 1016.00 1016.04 1016.12 1016.16 1016.16 1016.20 1016.20 1016.24 1016.28 1016.28 1016.32 1016.32 1016.32 1016.32 1016.32 1016.32 1016.32 1016.28 1016.24 1016.20 1016.20 1016.16 1016.16 1016.08 1016.04 1016.00 1015.96 1015.88 1015.84 1015.76 1015.72 1015.60 1015.52 1015.40 1015.32 1015.20 1015.12 1015.08 1015.08 1015.00 1014.84 1014.72 1014.60 1014.52 1014.40 1014.28 1014.16 1014.04 1013.96 1013.88 1013.76
1013.32 1013.56 1013.84 1014.04 1014.20 1014.36 1014.52 1014.72 1014.92 1015.08 1015.16 1015.24 1015.36 1015.56 1015.68 1015.76 1015.88 1016.00 1016.04 1016.08 1016.16 1016.16 1016.20 1016.20 1016.20 1016.20 1016.24 1016.24 1016.32 1016.32 1016.32 1016.32 1016.32 1016.28 1016.20 1016.16 1016.12 1016.08 1016.04 1016.04 1015.96 1015.88 1015.88 1015.88 1015.80 1015.72 1015.68 1015.64 1015.60 1015.48 1015.40 1015.28 1015.16 1015.08 1015.00 1014.92 1014.88 1014.80 1014.64 1014.52 1014.44 1014.36 1014.20 1014.04 1013.92 1013.84 1013.76 1013.68 1013.60
1013.44 1013.64 1013.88 1014.04 1014.16 1014.32 1014.44 1014.64 1014.76 1014.88 1015.00 1015.16 1015.36 1015.60 1015.72 1015.84 1015.92 1016.00 1016.04 1016.04 1016.12 1016.16 1016.16 1016.16 1016.12 1016.16 1016.20 1016.28 1016.32 1016.32 1016.32 1016.32 1016.20 1016.16 1016.12 1016.08 1016.04 1016.00 1015.92 1015.88 1015.84 1015.76 1015.72 1015.72 1015.68 1015.60 1015.56 1015.52 1015.44 1015.36 1015.24 1015.16 1015.04 1014.96 1014.88 1014.80 1014.72 1014.64 1014.52 1014.40 1014.32 1014.16 1014.04 1013.92 1013.80 1013.72 1013.60 1013.48 1013.40
1013.56 1013.72 1013.92 1014.04 1014.16 1014.24 1014.36 1014.52 1014.64 1014.76 1014.96 1015.16 1015.40 1015.56 1015.68 1015.80 1015.88 1015.92 1015.96 1015.96 1016.00 1016.00 1016.00 1016.04 1016.08 1016.16 1016.24 1016.28 1016.28 1016.24 1016.16 1016.16 1016.12 1016.08 1016.04 1015.92 1015.92 1015.88 1015.88 1015.76 1015.72 1015.68 1015.64 1015.60 1015.60 1015.52 1015.48 1015.44 1015.36 1015.28 1015.16 1015.04 1014.96 1014.84 1014.72 1014.60 1014.56 1014.48 1014.36 1014.24 1014.16 1014.04 1013.92 1013.76 1013.68 1013.56 1013.44 1013.32 1013.24
1013.72 1013.84 1014.00 1014.08 1014.16 1014.24 1014.36 1014.60 1014.76 1014.92 1015.12 1015.32 1015.48 1015.60 1015.68 1015.72 1015.72 1015.76 1015.80 1015.80 1015.88 1015.88 1015.96 1016.04 1016.12 1016.20 1016.20 1016.16 1016.16 1016.08 1016.04 1016.00 1016.00 1015.96 1015.92 1015.88 1015.84 1015.76 1015.72 1015.68 1015.64 1015.60 1015.60 1015.48 1015.48 1015.44 1015.36 1015.32 1015.24 1015.12 1015.00 1014.88 1014.80 1014.68 1014.60 1014.52 1014.44 1014.32 1014.24 1014.12 1014.04 1013.92 1013.80 1013.68 1013.56 1013.44 1013.36 1013.20 1013.12
1013.72 1013.88 1014.04 1014.12 1014.24 1014.36 1014.56 1014.76 1014.96 1015.16 1015.32 1015.44 1015.44 1015.48 1015.56 1015.60 1015.64 1015.68 1015.72 1015.76 1015.84 1015.88 1015.96 1016.04 1016.12 1016.12 1016.08 1016.04 1016.00 1015.96 1015.92 1015.88 1015.88 1015.88 1015.84 1015.76 1015.72 1015.64 1015.60 1015.56 1015.52 1015.44 1015.40 1015.32 1015.32 1015.20 1015.16 1015.16 1015.00 1014.88 1014.76 1014.72 1014.60 1014.44 1014.40 1014.36 1014.28 1014.16 1014.08 1013.96 1013.88 1013.80 1013.72 1013.60 1013.48 1013.40 1013.32 1013.16 1013.04
1013.68 1013.84 1014.00 1014.16 1014.36 1014.56 1014.72 1014.88 1015.08 1015.20 1015.32 1015.32 1015.40 1015.44 1015.44 1015.52 1015.60 1015.64 1015.72 1015.76 1015.84 1015.88 1015.92 1015.96 1015.96 1015.96 1015.96 1015.88 1015.88 1015.88 1015.88 1015.80 1015.76 1015.72 1015.72 1015.64 1015.60 1015.52 1015.48 1015.44 1015.36 1015.32 1015.24 1015.20 1015.16 1015.04 1015.00 1014.92 1014.84 1014.68 1014.56 1014.48 1014.36 1014.24 1014.16 1014.16 1014.08 1014.00 1013.92 1013.80 1013.72 1013.64 1013.60 1013.48 1013.44 1013.32 1013.24 1013.12 1013.00
1013.56 1013.72 1013.96 1014.16 1014.44 1014.64 1014.80 1015.00 1015.12 1015.16 1015.20 1015.24 1015.28 1015.32 1015.44 1015.44 1015.56 1015.60 1015.68 1015.72 1015.72 1015.80 1015.84 1015.88 1015.88 1015.84 1015.84 1015.80 1015.80 1015.76 1015.76 1015.72 1015.68 1015.64 1015.60 1015.52 1015.44 1015.40 1015.32 1015.32 1015.20 1015.12 1015.04 1015.00 1014.96 1014.88 1014.80 1014.72 1014.60 1014.48 1014.36 1014.28 1014.16 1014.04 1013.92 1013.92 1013.88 1013.80 1013.72 1013.68 1013.60 1013.48 1013.44 1013.40 1013.32 1013.24 1013.16 1013.00 1012.96
1013.44 1013.68 1013.96 1014.16 1014.40 1014.64 1014.84 1014.96 1015.04 1015.08 1015.12 1015.16 1015.16 1015.24 1015.32 1015.44 1015.48 1015.60 1015.60 1015.64 1015.68 1015.72 1015.72 1015.72 1015.72 1015.72 1015.72 1015.72 1015.68 1015.64 1015.60 1015.60 1015.52 1015.44 1015.40 1015.32 1015.28 1015.20 1015.12 1015.04 1014.96 1014.88 1014.80 1014.72 1014.68 1014.60 1014.52 1014.44 1014.32 1014.24 1014.16 1014.04 1013.96 1013.88 1013.80 1013.76 1013.72 1013.64 1013.60 1013.52 1013.44 1013.32 1013.28 1013.20 1013.16 1013.12 1013.00 1012.92 1012.84
1013.36 1013.64 1013.88 1014.08 1014.32 1014.52 1014.72 1014.80 1014.88 1014.92 1015.00 1015.00 1015.08 1015.16 1015.24 1015.32 1015.40 1015.44 1015.48 1015.52 1015.56 1015.52 1015.52 1015.56 1015.56 1015.52 1015.52 1015.48 1015.48 1015.44 1015.40 1015.36 1015.28 1015.24 1015.16 1015.08 1015.00 1014.92 1014.88 1014.76 1014.68 1014.60 1014.52 1014.44 1014.44 1014.40 1014.32 1014.28 1014.16 1014.04 1013.96 1013.88 1013.84 1013.72 1013.64 1013.60 1013.60 1013.52 1013.44 1013.32 1013.28 1013.20 1013.16 1013.04 1013.00 1013.00 1012.88 1012.76 1012.68
1013.32 1013.60 1013.84 1014.04 1014.24 1014.40 1014.52 1014.60 1014.68 1014.72 1014.84 1014.92 1015.00 1015.08 1015.16 1015.20 1015.24 1015.32 1015.32 1015.32 1015.32 1015.32 1015.32 1015.32 1015.32 1015.32 1015.24 1015.20 1015.16 1015.16 1015.16 1015.08 1015.00 1014.96 1014.88 1014.84 1014.76 1014.68 1014.60 1014.56 1014.44 1014.40 1014.32 1014.28 1014.24 1014.24 1014.16 1014.08 1014.00 1013.88 1013.80 1013.72 1013.72 1013.60 1013.56 1013.44 1013.44 1013.36 1013.28 1013.20 1013.16 1013.08 1013.00 1012.88 1012.88 1012.84 1012.72 1012.60 1012.56
1013.32 1013.60 1013.80 1013.96 1014.12 1014.28 1014.36 1014.44 1014.52 1014.60 1014.72 1014.80 1014.88 1015.00 1015.04 1015.08 1015.12 1015.12 1015.12 1015.12 1015.12 1015.12 1015.12 1015.12 1015.12 1015.12 1015.08 1015.00 1015.00 1014.96 1014.92 1014.88 1014.80 1014.72 1014.68 1014.64 1014.60 1014.48 1014.44 1014.36 1014.28 1014.24 1014.20 1014.16 1014.16 1014.16 1014.04 1013.96 1013.88 1013.72 1013.64 1013.60 1013.52 1013.44 1013.40 1013.36 1013.32 1013.20 1013.12 1013.04 1013.00 1012.88 1012.84 1012.76 1012.72 1012.68 1012.60 1012.44 1012.36
1013.44 1013.60 1013.72 1013.88 1014.00 1014.08 1014.20 1014.32 1014.40 1014.52 1014.60 1014.72 1014.80 1014.88 1014.92 1014.96 1014.96 1014.96 1014.96 1014.96 1014.96 1014.96 1014.96 1014.96 1015.00 1015.00 1014.96 1014.92 1014.88 1014.88 1014.80 1014.72 1014.68 1014.60 1014.52 1014.48 1014.40 1014.32 1014.28 1014.20 1014.12 1014.08 1014.08 1014.04 1014.04 1014.00 1013.88 1013.80 1013.72 1013.60 1013.48 1013.44 1013.32 1013.28 1013.24 1013.20 1013.16 1013.08 1013.00 1012.92 1012.84 1012.72 1012.64 1012.60 1012.60 1012.56 1012.48 1012.32 1012.24
1013.48 1013.60 1013.68 1013.80 1013.88 1013.96 1014.04 1014.16 1014.32 1014.44 1014.56 1014.68 1014.72 1014.76 1014.80 1014.76 1014.76 1014.80 1014.84 1014.88 1014.88 1014.88 1014.88 1014.88 1014.88 1014.88 1014.88 1014.88 1014.80 1014.72 1014.72 1014.64 1014.60 1014.48 1014.40 1014.32 1014.24 1014.16 1014.12 1014.04 1013.96 1013.88 1013.88 1013.84 1013.80 1013.76 1013.72 1013.60 1013.52 1013.44 1013.32 1013.24 1013.16 1013.08 1013.04 1013.00 1013.00 1012.92 1012.84 1012.76 1012.68 1012.60 1012.52 1012.44 1012.44 1012.40 1012.36 1012.24 1012.16
1013.48 1013.60 1013.64 1013.72 1013.76 1013.88 1014.00 1014.16 1014.32 1014.44 1014.56 1014.60 1014.60 1014.64 1014.64 1014.60 1014.64 1014.72 1014.76 1014.84 1014.84 1014.84 1014.84 1014.80 1014.80 1014.76 1014.76 1014.76 1014.72 1014.68 1014.60 1014.52 1014.44 1014.32 1014.24 1014.16 1014.04 1014.00 1013.92 1013.84 1013.72 1013.68 1013.64 1013.60 1013.52 1013.48 1013.44 1013.40 1013.32 1013.24 1013.16 1013.04 1013.00 1012.92 1012.88 1012.80 1012.76 1012.72 1012.60 1012.56 1012.48 1012.44 1012.36 1012.32 1012.32 1012.32 1012.24 1012.16 1012.08
1013.40 1013.48 1013.60 1013.60 1013.72 1013.84 1014.00 1014.16 1014.32 1014.40 1014.44 1014.44 1014.44 1014.44 1014.44 1014.52 1014.56 1014.60 1014.68 1014.72 1014.76 1014.76 1014.76 1014.72 1014.72 1014.72 1014.68 1014.68 1014.68 1014.60 1014.56 1014.44 1014.32 1014.20 1014.08 1013.96 1013.88 1013.80 1013.72 1013.60 1013.56 1013.52 1013.44 1013.36 1013.32 1013.24 1013.16 1013.12 1013.08 1013.00 1012.96 1012.88 1012.80 1012.72 1012.64 1012.60 1012.52 1012.48 1012.44 1012.36 1012.32 1012.32 1012.28 1012.24 1012.24 1012.24 1012.16 1012.16 1012.04
1013.32 1013.40 1013.48 1013.56 1013.64 1013.76 1013.92 1014.04 1014.16 1014.16 1014.16 1014.20 1014.24 1014.28 1014.36 1014.44 1014.48 1014.56 1014.60 1014.60 1014.68 1014.68 1014.64 1014.64 1014.68 1014.68 1014.64 1014.60 1014.60 1014.52 1014.44 1014.36 1014.24 1014.12 1014.00 1013.88 1013.76 1013.68 1013.56 1013.44 1013.40 1013.36 1013.32 1013.20 1013.12 1013.00 1012.92 1012.88 1012.80 1012.76 1012.72 1012.68 1012.60 1012.52 1012.44 1012.40 1012.32 1012.28 1012.24 1012.24 1012.20 1012.20 1012.20 1012.20 1012.20 1012.20 1012.16 1012.12 1012.04
1013.16 1013.28 1013.36 1013.44 1013.52 1013.60 1013.72 1013.80 1013.88 1013.92 1013.96 1014.04 1014.12 1014.16 1014.28 1014.36 1014.44 1014.44 1014.48 1014.52 1014.56 1014.56 1014.52 1014.52 1014.56 1014.52 1014.48 1014.44 1014.36 1014.32 1014.28 1014.16 1014.08 1013.96 1013.84 1013.72 1013.64 1013.52 1013.44 1013.32 1013.24 1013.16 1013.08 1013.00 1012.92 1012.84 1012.72 1012.72 1012.64 1012.60 1012.52 1012.48 1012.44 1012.36 1012.28 1012.20 1012.16 1012.08 1012.08 1012.08 1012.08 1012.12 1012.16 1012.16 1012.16 1012.16 1012.16 1012.08 1012.00
1013.04 1013.12 1013.16 1013.24 1013.32 1013.36 1013.44 1013.56 1013.60 1013.72 1013.84 1013.92 1014.04 1014.12 1014.20 1014.28 1014.32 1014.36 1014.36 1014.36 1014.40 1014.44 1014.44 1014.40 1014.36 1014.32 1014.24 1014.16 1014.08 1014.04 1013.96 1013.88 1013.80 1013.72 1013.60 1013.56 1013.44 1013.32 1013.24 1013.16 1013.04 1013.00 1012.88 1012.80 1012.72 1012.64 1012.60 1012.52 1012.44 1012.40 1012.32 1012.28 1012.16 1012.12 1012.04 1011.96 1011.92 1011.88 1011.92 1012.00 1012.04 1012.04 1012.08 1012.12 1012.12 1012.12 1012.08 1012.04 1011.92
1012.96 1013.00 1013.08 1013.12 1013.16 1013.20 1013.32 1013.40 1013.48 1013.64 1013.76 1013.88 1013.96 1014.04 1014.16 1014.20 1014.24 1014.28 1014.24 1014.24 1014.28 1014.28 1014.28 1014.20 1014.16 1014.04 1013.96 1013.88 1013.84 1013.72 1013.68 1013.64 1013.56 1013.44 1013.40 1013.32 1013.28 1013.16 1013.04 1013.00 1012.88 1012.80 1012.68 1012.60 1012.52 1012.44 1012.40 1012.32 1012.28 1012.20 1012.16 1012.04 1011.96 1011.88 1011.76 1011.72 1011.76 1011.80 1011.88 1011.92 1012.00 1012.04 1012.04 1012.04 1012.04 1012.00 1011.92 1011.88 1011.76
1012.88 1012.96 1013.00 1013.04 1013.12 1013.16 1013.24 1013.36 1013.48 1013.64 1013.76 1013.88 1013.92 1013.96 1014.04 1014.08 1014.12 1014.12 1014.12 1014.16 1014.12 1014.12 1014.04 1013.96 1013.88 1013.80 1013.72 1013.68 1013.60 1013.52 1013.44 1013.40 1013.36 1013.32 1013.24 1013.16 1013.04 1012.96 1012.92 1012.88 1012.72 1012.60 1012.48 1012.40 1012.32 1012.24 1012.16 1012.12 1012.04 1011.96 1011.88 1011.76 1011.64 1011.60 1011.60 1011.60 1011.68 1011.72 1011.80 1011.84 1011.88 1011.92 1011.92 1011.92 1011.88 1011.80 1011.72 1011.60 1011.48
1012.88 1012.96 1013.00 1013.04 1013.12 1013.20 1013.28 1013.40 1013.52 1013.60 1013.72 1013.76 1013.80 1013.88 1013.88 1013.92 1013.92 1013.92 1013.92 1013.92 1013.88 1013.88 1013.80 1013.72 1013.68 1013.60 1013.56 1013.52 1013.44 1013.36 1013.28 1013.20 1013.12 1013.08 1013.00 1012.96 1012.88 1012.76 1012.72 1012.64 1012.48 1012.36 1012.28 1012.16 1012.04 1012.00 1011.92 1011.84 1011.72 1011.64 1011.52 1011.44 1011.32 1011.32 1011.40 1011.48 1011.56 1011.64 1011.72 1011.72 1011.72 1011.72 1011.72 1011.72 1011.64 1011.56 1011.44 1011.32 1011.20
1012.88 1012.96 1013.00 1013.04 1013.12 1013.20 1013.32 1013.44 1013.48 1013.56 1013.60 1013.60 1013.60 1013.64 1013.68 1013.68 1013.72 1013.72 1013.72 1013.72 1013.68 1013.64 1013.60 1013.60 1013.52 1013.44 1013.40 1013.32 1013.28 1013.16 1013.08 1013.00 1012.88 1012.80 1012.72 1012.68 1012.64 1012.56 1012.44 1012.32 1012.24 1012.08 1011.96 1011.88 1011.80 1011.72 1011.68 1011.60 1011.48 1011.44 1011.32 1011.28 1011.20 1011.24 1011.32 1011.44 1011.48 1011.56 1011.60 1011.60 1011.60 1011.52 1011.44 1011.40 1011.32 1011.28 1011.16 1011.00 1010.92
1012.96 1013.00 1013.00 1013.04 1013.16 1013.24 1013.32 1013.40 1013.44 1013.44 1013.44 1013.44 1013.44 1013.44 1013.44 1013.44 1013.44 1013.48 1013.48 1013.48 1013.48 1013.44 1013.44 1013.40 1013.32 1013.28 1013.20 1013.12 1013.04 1012.96 1012.88 1012.76 1012.64 1012.56 1012.44 1012.40 1012.32 1012.28 1012.16 1012.04 1011.92 1011.80 1011.72 1011.60 1011.56 1011.56 1011.56 1011.52 1011.44 1011.36 1011.32 1011.24 1011.28 1011.32 1011.36 1011.40 1011.44 1011.52 1011.52 1011.48 1011.44 1011.36 1011.24 1011.12 1011.00 1010.92 1010.84 1010.72 1010.60
1013.00 1013.00 1013.00 1013.04 1013.16 1013.20 1013.28 1013.32 1013.32 1013.32 1013.36 1013.36 1013.32 1013.32 1013.32 1013.28 1013.32 1013.32 1013.32 1013.32 1013.28 1013.28 1013.28 1013.20 1013.16 1013.08 1013.00 1012.92 1012.84 1012.72 1012.64 1012.52 1012.44 1012.32 1012.16 1012.08 1012.00 1011.92 1011.84 1011.72 1011.64 1011.52 1011.40 1011.32 1011.28 1011.32 1011.32 1011.32 1011.36 1011.36 1011.32 1011.32 1011.28 1011.32 1011.32 1011.32 1011.36 1011.40 1011.40 1011.32 1011.24 1011.12 1010.96 1010.76 1010.60 1010.52 1010.44 1010.36 1010.28
1012.92 1012.92 1012.96 1013.00 1013.08 1013.16 1013.16 1013.20 1013.20 1013.24 1013.28 1013.24 1013.16 1013.16 1013.16 1013.16 1013.16 1013.16 1013.16 1013.12 1013.08 1013.08 1013.04 1013.00 1012.96 1012.88 1012.80 1012.72 1012.60 1012.44 1012.32 1012.20 1012.12 1012.04 1011.88 1011.80 1011.68 1011.60 1011.48 1011.40 1011.32 1011.20 1011.12 1011.04 1011.04 1011.08 1011.08 1011.08 1011.12 1011.20 1011.28 1011.28 1011.24 1011.20 1011.16 1011.16 1011.16 1011.16 1011.16 1011.04 1010.96 1010.84 1010.64 1010.44 1010.28 1010.16 1010.04 1009.92 1009.84
1012.80 1012.84 1012.88 1012.92 1013.00 1013.00 1013.04 1013.08 1013.12 1013.16 1013.12 1013.12 1013.08 1013.04 1013.04 1013.04 1013.04 1013.04 1013.00 1013.00 1012.88 1012.88 1012.80 1012.72 1012.68 1012.60 1012.52 1012.36 1012.20 1012.12 1012.04 1011.92 1011.84 1011.72 1011.64 1011.56 1011.44 1011.32 1011.20 1011.08 1011.00 1010.88 1010.84 1010.80 1010.80 1010.84 1010.84 1010.88 1010.92 1011.04 1011.16 1011.16 1011.16 1011.12 1011.04 1011.00 1010.96 1010.92 1010.88 1010.72 1010.60 1010.48 1010.32 1010.16 1010.00 1009.80 1009.64 1009.52 1009.44
1012.72 1012.76 1012.84 1012.88 1012.92 1012.96 1013.00 1013.00 1013.00 1013.00 1013.00 1013.00 1013.00 1013.00 1013.00 1013.00 1013.00 1012.92 1012.88 1012.76 1012.72 1012.60 1012.52 1012.44 1012.36 1012.32 1012.16 1012.04 1011.92 1011.84 1011.72 1011.64 1011.56 1011.48 1011.36 1011.24 1011.16 1011.00 1010.88 1010.80 1010.72 1010.60 1010.56 1010.56 1010.60 1010.60 1010.68 1010.72 1010.80 1010.88 1011.00 1011.04 1011.08 1011.00 1010.96 1010.88 1010.80 1010.68 1010.56 1010.44 1010.28 1010.16 1010.00 1009.76 1009.60 1009.44 1009.32 1009.16 1009.08
1012.64 1012.68 1012.72 1012.76 1012.84 1012.88 1012.92 1012.92 1012.92 1012.92 1012.92 1012.92 1012.96 1012.96 1012.92 1012.88 1012.84 1012.72 1012.64 1012.56 1012.44 1012.36 1012.28 1012.20 1012.16 1012.04 1011.96 1011.84 1011.72 1011.64 1011.56 1011.40 1011.28 1011.16 1011.08 1011.00 1010.88 1010.76 1010.64 1010.60 1010.44 1010.36 1010.32 1010.36 1010.44 1010.48 1010.56 1010.60 1010.72 1010.80 1010.88 1010.92 1010.96 1010.92 1010.80 1010.68 1010.56 1010.44 1010.28 1010.12 1010.00 1009.84 1009.64 1009.48 1009.32 1009.12 1009.00 1008.84 1008.68
1012.56 1012.56 1012.60 1012.68 1012.72 1012.80 1012.80 1012.84 1012.84 1012.88 1012.88 1012.88 1012.88 1012.84 1012.80 1012.72 1012.64 1012.56 1012.44 1012.36 1012.28 1012.16 1012.12 1012.04 1012.00 1011.88 1011.76 1011.64 1011.52 1011.40 1011.24 1011.16 1011.00 1010.92 1010.88 1010.76 1010.68 1010.56 1010.44 1010.36 1010.32 1010.20 1010.16 1010.24 1010.32 1010.40 1010.48 1010.56 1010.60 1010.68 1010.72 1010.76 1010.80 1010.72 1010.56 1010.44 1010.28 1010.12 1009.96 1009.76 1009.60 1009.44 1009.32 1009.16 1009.00 1008.84 1008.68 1008.52 1008.36
1012.40 1012.44 1012.44 1012.52 1012.60 1012.64 1012.72 1012.72 1012.76 1012.80 1012.80 1012.84 1012.80 1012.72 1012.68 1012.60 1012.48 1012.40 1012.32 1012.24 1012.16 1012.04 1011.96 1011.88 1011.80 1011.68 1011.52 1011.44 1011.32 1011.16 1011.00 1010.92 1010.84 1010.76 1010.72 1010.60 1010.52 1010.40 1010.32 1010.20 1010.08 1010.04 1010.08 1010.16 1010.28 1010.36 1010.44 1010.48 1010.52 1010.52 1010.56 1010.52 1010.52 1010.44 1010.28 1010.12 1009.96 1009.76 1009.60 1009.40 1009.24 1009.08 1009.00 1008.84 1008.64 1008.44 1008.32 1008.16 1008.04
1012.24 1012.28 1012.32 1012.40 1012.44 1012.52 1012.60 1012.68 1012.72 1012.72 1012.72 1012.72 1012.68 1012.60 1012.52 1012.44 1012.32 1012.24 1012.16 1012.12 1012.04 1011.88 1011.80 1011.72 1011.60 1011.48 1011.36 1011.20 1011.08 1010.96 1010.88 1010.80 1010.72 1010.64 1010.60 1010.52 1010.40 1010.28 1010.16 1010.04 1009.92 1009.96 1010.04 1010.16 1010.24 1010.32 1010.32 1010.32 1010.32 1010.32 1010.28 1010.24 1010.16 1010.04 1009.88 1009.72 1009.56 1009.40 1009.16 1009.00 1008.84 1008.72 1008.60 1008.40 1008.24 1008.08 1007.92 1007.80 1007.68
1012.20 1012.24 1012.28 1012.32 1012.40 1012.48 1012.56 1012.60 1012.64 1012.68 1012.64 1012.60 1012.52 1012.44 1012.40 1012.32 1012.16 1012.08 1012.04 1011.92 1011.84 1011.72 1011.64 1011.52 1011.44 1011.32 1011.20 1011.08 1010.96 1010.84 1010.72 1010.72 1010.60 1010.52 1010.44 1010.36 1010.28 1010.16 1010.04 1009.92 1009.88 1009.96 1010.04 1010.12 1010.16 1010.16 1010.16 1010.12 1010.04 1010.04 1009.96 1009.88 1009.80 1009.68 1009.48 1009.32 1009.16 1008.96 1008.76 1008.60 1008.44 1008.32 1008.16 1008.00 1007.80 1007.60 1007.48 1007.40 1007.28
1012.16 1012.16 1012.24 1012.32 1012.40 1012.44 1012.52 1012.56 1012.60 1012.56 1012.48 1012.44 1012.32 1012.28 1012.24 1012.16 1012.08 1011.96 1011.84 1011.76 1011.68 1011.60 1011.48 1011.36 1011.28 1011.16 1011.04 1010.92 1010.88 1010.76 1010.64 1010.56 1010.44 1010.40 1010.32 1010.28 1010.16 1010.04 1009.96 1009.88 1009.88 1009.92 1010.00 1010.04 1010.00 1009.96 1009.92 1009.84 1009.80 1009.72 1009.60 1009.56 1009.44 1009.32 1009.12 1008.92 1008.72 1008.52 1008.32 1008.16 1008.00 1007.80 1007.64 1007.52 1007.36 1007.16 1007.00 1006.92 1006.84
1012.00 1012.12 1012.24 1012.36 1012.44 1012.48 1012.48 1012.44 1012.44 1012.36 1012.32 1012.28 1012.24 1012.16 1012.08 1012.00 1011.88 1011.76 1011.68 1011.60 1011.52 1011.44 1011.32 1011.20 1011.12 1011.00 1010.88 1010.72 1010.68 1010.60 1010.52 1010.44 1010.32 1010.20 1010.16 1010.16 1010.08 1010.04 1009.96 1009.88 1009.84 1009.88 1009.88 1009.88 1009.84 1009.72 1009.68 1009.60 1009.48 1009.40 1009.32 1009.20 1009.08 1008.88 1008.72 1008.56 1008.32 1008.12 1007.92 1007.72 1007.56 1007.36 1007.20 1007.00 1006.88 1006.68 1006.56 1006.44 1006.32
1011.96 1012.08 1012.20 1012.32 1012.36 1012.36 1012.36 1012.32 1012.32 1012.20 1012.16 1012.12 1012.08 1012.00 1011.88 1011.76 1011.72 1011.60 1011.56 1011.48 1011.40 1011.28 1011.16 1011.04 1010.96 1010.84 1010.72 1010.60 1010.56 1010.44 1010.32 1010.28 1010.16 1010.08 1010.04 1010.04 1010.04 1010.04 1009.96 1009.88 1009.80 1009.76 1009.72 1009.68 1009.60 1009.52 1009.44 1009.32 1009.20 1009.12 1009.00 1008.88 1008.72 1008.52 1008.32 1008.16 1007.96 1007.72 1007.56 1007.32 1007.12 1006.92 1006.72 1006.56 1006.32 1006.16 1006.04 1005.88 1005.80
1012.00 1012.08 1012.16 1012.16 1012.16 1012.16 1012.20 1012.20 1012.16 1012.08 1012.04 1011.96 1011.88 1011.80 1011.72 1011.64 1011.60 1011.52 1011.44 1011.44 1011.32 1011.16 1011.00 1010.92 1010.80 1010.68 1010.56 1010.48 1010.40 1010.32 1010.20 1010.16 1010.12 1010.04 1010.00 1009.96 1010.00 1010.00 1009.96 1009.84 1009.72 1009.60 1009.52 1009.44 1009.36 1009.24 1009.16 1009.00 1008.88 1008.76 1008.68 1008.56 1008.36 1008.16 1008.00 1007.80 1007.60 1007.40 1007.16 1006.96 1006.72 1006.44 1006.28 1006.08 1005.88 1005.72 1005.56 1005.40 1005.32
1012.00 1012.04 1012.04 1012.04 1012.08 1012.08 1012.08 1012.08 1012.04 1012.00 1011.88 1011.84 1011.76 1011.72 1011.64 1011.60 1011.48 1011.40 1011.36 1011.36 1011.28 1011.12 1010.96 1010.80 1010.60 1010.48 1010.44 1010.36 1010.28 1010.16 1010.04 1010.00 1010.00 1010.00 1009.96 1009.92 1009.92 1009.96 1009.92 1009.76 1009.60 1009.40 1009.32 1009.20 1009.08 1008.92 1008.80 1008.68 1008.52 1008.40 1008.28 1008.20 1008.04 1007.88 1007.72 1007.52 1007.32 1007.04 1006.80 1006.60 1006.36 1006.08 1005.84 1005.68 1005.52 1005.32 1005.16 1005.00 1004.88
1012.04 1012.04 1012.04 1012.04 1012.04 1012.04 1012.00 1011.92 1011.88 1011.84 1011.80 1011.72 1011.68 1011.64 1011.60 1011.48 1011.44 1011.36 1011.32 1011.28 1011.16 1011.00 1010.84 1010.64 1010.48 1010.36 1010.32 1010.24 1010.08 1009.96 1009.84 1009.80 1009.84 1009.88 1009.92 1009.92 1009.88 1009.88 1009.80 1009.64 1009.44 1009.20 1009.00 1008.88 1008.72 1008.60 1008.44 1008.32 1008.12 1008.00 1007.88 1007.84 1007.72 1007.60 1007.44 1007.24 1007.00 1006.72 1006.44 1006.24 1006.00 1005.72 1005.48 1005.32 1005.16 1004.96 1004.76 1004.60 1004.44
1011.96 1011.96 1011.96 1011.96 1011.92 1011.88 1011.88 1011.80 1011.72 1011.72 1011.72 1011.72 1011.64 1011.60 1011.56 1011.44 1011.36 1011.32 1011.20 1011.08 1010.96 1010.84 1010.72 1010.56 1010.36 1010.24 1010.16 1010.08 1009.96 1009.84 1009.72 1009.72 1009.72 1009.80 1009.88 1009.88 1009.84 1009.72 1009.60 1009.44 1009.20 1008.96 1008.72 1008.56 1008.40 1008.20 1008.04 1007.88 1007.72 1007.64 1007.60 1007.48 1007.40 1007.32 1007.16 1006.96 1006.68 1006.40 1006.16 1005.92 1005.72 1005.48 1005.28 1005.00 1004.88 1004.68 1004.48 1004.32 1004.08
Wind_Speed
6 5 5 4 4 3 3 3 2 1 1 1 2 2 2 2 2 2 2 3 3 3 4 4 5 6 7 8 9 9 10 10 11 11 12 13 13 13 13 13 13 13 13 13 13 12 12 12 11 10 8 8 9 10 10 9 10 11 11 12 11 12 13 15 15 16 17 18 16
7 7 6 5 4 4 3 3 3 2 2 2 2 2 2 1 2 2 3 3 4 4 5 5 6 7 8 9 9 9 10 10 11 12 13 13 14 14 14 13 13 13 13 13 13 12 11 11 11 10 8 8 9 10 10 9 10 11 13 14 12 11 12 13 14 15 16 17 16
7 7 7 6 5 5 4 4 4 4 5 4 3 2 2 1 2 3 3 4 5 5 5 5 6 7 8 9 8 9 9 10 12 13 13 13 14 14 14 13 14 14 13 13 12 12 11 11 10 9 9 8 9 10 10 11 11 12 13 14 12 10 10 10 12 13 13 12 14
8 8 7 7 7 7 6 5 6 6 6 4 3 3 2 2 2 3 4 5 5 6 5 6 6 6 6 7 8 9 10 11 13 13 13 13 14 14 14 14 14 14 14 13 13 13 13 13 11 9 9 10 11 11 10 10 11 11 11 11 10 10 10 10 11 11 10 11 13
7 7 7 7 8 8 7 5 5 5 4 3 2 2 2 2 3 4 4 4 5 5 6 7 6 6 6 7 9 11 12 13 12 12 12 13 13 14 14 14 14 14 14 13 14 14 14 14 11 9 9 11 10 10 11 12 12 12 11 9 9 10 10 10 10 10 10 10 11
7 7 7 6 7 6 5 4 4 3 3 2 1 2 3 3 4 4 5 5 6 7 8 8 7 6 7 9 11 12 12 12 12 12 12 13 13 13 14 15 15 14 13 13 14 15 14 13 10 9 9 10 10 11 12 14 13 12 11 10 10 10 10 11 10 10 11 12 13
8 8 7 6 6 5 5 4 4 3 2 2 3 4 4 5 5 6 6 6 6 7 7 6 7 7 9 10 11 11 11 11 11 12 13 13 13 14 14 14 15 15 15 15 15 15 14 13 10 9 9 9 9 11 13 13 13 12 12 12 10 10 10 12 11 10 12 15 17
9 9 8 7 6 6 5 5 4 3 3 3 4 4 5 6 6 7 7 7 7 7 7 6 8 10 10 11 11 11 12 12 12 12 13 13 14 14 15 15 15 15 16 15 15 15 14 12 10 10 10 9 9 10 12 14 14 14 14 14 12 11 11 11 11 11 13 16 18
9 9 8 8 7 6 5 4 4 3 3 3 4 5 5 6 7 7 7 6 7 7 7 7 9 11 11 12 12 11 11 12 12 13 13 13 14 15 15 15 15 15 15 15 15 16 15 12 11 10 10 10 10 11 13 15 16 16 15 14 13 13 13 13 13 14 15 17 18
9 9 8 8 7 6 5 4 4 4 4 4 5 6 6 6 6 7 7 6 7 7 8 8 9 10 11 12 12 12 12 12 12 13 14 14 14 15 15 14 15 15 15 14 14 15 15 13 12 12 12 12 13 14 15 16 17 17 16 13 13 15 16 16 17 17 17 17 18
9 9 8 7 6 5 4 4 4 4 4 5 6 6 7 7 7 7 7 7 8 9 10 10 10 11 11 11 11 12 12 12 12 13 14 15 15 15 16 15 16 16 16 15 14 13 13 12 13 14 15 15 15 16 16 17 18 18 18 16 16 18 19 19 19 18 18 18 19
9 8 7 6 5 4 3 3 3 4 5 5 6 7 7 7 8 9 9 9 10 10 10 11 11 11 11 11 11 12 12 13 13 14 14 15 16 16 17 17 17 17 17 17 15 13 12 13 14 16 17 18 15 14 15 17 18 19 19 19 19 19 20 20 20 18 17 18 19
8 7 6 5 4 3 3 3 4 4 5 6 6 7 7 8 9 9 10 10 10 10 10 10 11 11 11 11 11 12 12 13 14 14 14 15 16 16 17 17 17 17 17 16 15 14 13 14 16 18 19 19 16 15 16 18 19 19 19 20 20 20 20 21 21 20 19 20 20
7 5 4 3 3 3 3 4 4 4 5 7 7 7 8 8 9 9 9 10 10 10 10 10 10 10 11 12 12 13 13 14 14 15 16 16 16 16 17 17 17 17 16 15 15 15 16 16 17 18 19 20 19 18 18 19 19 19 20 20 21 21 21 21 21 21 21 21 21
5 4 3 3 3 3 4 4 4 5 6 7 7 8 8 8 8 8 8 9 10 10 10 10 10 10 11 12 13 14 14 15 15 16 16 17 17 17 17 17 17 17 17 16 16 16 17 18 19 19 19 20 20 20 20 19 19 19 20 20 21 21 21 21 21 20 20 21 21
4 4 4 4 4 4 4 4 4 5 6 7 8 8 8 7 7 7 8 9 9 9 9 10 11 11 11 12 13 14 15 15 16 16 17 17 17 17 17 18 18 18 18 18 17 17 17 18 18 18 19 20 20 20 20 20 20 20 20 21 21 21 21 21 21 20 20 21 21
4 4 4 4 4 5 5 5 5 6 7 8 8 8 7 7 7 7 8 8 8 9 10 11 11 11 11 12 12 13 14 14 15 15 16 16 17 17 18 18 18 18 18 18 18 18 18 18 18 18 19 19 20 20 20 21 20 20 20 21 21 21 21 20 20 20 20 21 21
5 5 5 5 5 6 7 7 8 8 9 9 8 8 7 7 7 8 8 9 9 10 11 12 12 12 12 13 13 13 13 14 15 16 16 17 17 18 18 18 18 18 18 18 19 19 19 19 19 18 18 18 19 19 20 20 20 20 20 20 20 20 20 20 20 19 19 20 20
5 6 6 6 7 7 8 9 9 9 9 9 8 8 8 8 9 9 9 10 10 11 12 13 12 13 13 14 14 13 13 14 16 17 18 18 18 18 18 19 19 19 19 19 19 19 19 19 19 19 19 18 19 19 19 19 19 19 19 19 19 19 19 19 19 19 19 19 20
6 6 6 7 7 8 9 9 9 9 8 8 8 8 9 9 10 10 11 11 11 12 12 13 13 13 14 15 15 15 15 14 15 17 18 18 18 18 19 19 19 19 19 19 19 19 19 19 19 19 19 19 19 20 20 19 19 19 18 17 17 17 18 18 19 19 19 20 20
6 6 7 7 8 8 8 8 8 8 8 8 8 9 9 10 10 11 12 12 12 12 13 14 14 15 15 16 16 16 16 14 15 16 17 17 18 18 19 18 19 18 18 18 18 18 19 19 19 19 19 19 19 19 19 18 17 17 17 15 16 17 18 19 19 20 20 20 20
6 6 7 7 8 8 8 7 7 8 8 8 9 9 10 10 11 11 12 12 12 13 14 14 15 16 16 16 16 16 16 15 15 16 16 16 17 17 17 17 18 18 18 18 18 19 19 19 19 19 19 18 19 18 18 16 16 15 16 16 17 17 18 18 19 19 20 20 20
6 7 7 7 8 7 7 7 8 8 9 9 9 10 10 11 11 12 12 12 12 13 14 14 14 15 16 16 17 17 17 16 17 17 17 17 17 18 18 17 18 18 18 17 17 17 18 17 18 18 18 17 17 16 16 15 14 14 15 16 17 17 18 18 18 19 19 20 20
7 7 7 7 7 7 7 8 8 9 9 10 10 10 10 11 11 11 12 12 13 13 14 13 13 15 16 17 17 18 18 18 18 18 18 18 18 18 18 17 17 17 16 15 15 15 15 14 15 15 16 15 15 14 14 14 14 14 15 16 17 17 18 18 18 19 19 20 19
8 8 8 8 8 8 8 8 9 9 10 10 11 11 11 11 11 11 12 12 13 14 14 15 15 15 15 16 17 17 18 18 18 18 18 18 18 17 17 15 15 14 14 13 15 16 16 15 14 13 13 13 13 13 14 14 15 15 15 16 17 17 17 18 19 19 19 20 19
9 9 9 9 8 8 9 9 10 10 10 11 11 11 12 12 11 12 12 13 13 14 14 15 15 14 14 15 16 16 17 16 17 17 17 17 17 17 16 15 13 12 12 13 15 16 16 16 14 12 11 11 12 12 13 13 14 15 15 16 16 17 17 18 19 19 19 19 19
9 9 9 9 9 9 9 9 10 10 11 11 12 12 12 12 12 12 13 14 14 14 14 14 14 13 13 14 15 16 16 15 16 16 17 17 17 18 17 16 14 12 12 15 16 17 16 15 14 12 12 11 12 12 12 12 13 14 15 16 16 17 18 19 19 19 19 19 19
9 9 9 9 9 9 9 10 10 11 11 11 12 12 12 13 13 14 14 14 15 14 13 13 12 11 11 11 13 15 16 16 16 16 16 17 18 18 18 16 14 14 14 16 17 16 15 14 13 13 13 12 12 12 13 13 14 14 14 14 15 16 18 18 18 18 18 19 18
10 9 9 9 9 9 10 10 10 11 11 11 12 12 12 13 14 14 15 15 15 15 13 12 11 10 11 12 14 15 16 17 16 16 16 17 18 18 18 17 17 16 17 18 17 15 14 14 14 15 16 16 13 11 11 12 12 12 12 12 13 14 16 16 16 16 16 17 17
10 10 9 9 9 9 10 10 10 11 11 10 11 12 13 13 14 15 15 16 16 15 14 12 12 12 14 15 15 15 16 16 16 16 16 17 17 18 18 17 17 17 17 17 16 15 15 16 17 17 18 19 16 14 12 12 12 12 12 12 14 15 17 17 18 18 18 17 17
10 10 9 9 9 10 10 10 10 10 10 10 12 13 13 14 15 15 15 16 15 15 15 15 16 16 17 17 16 16 17 16 16 16 16 17 17 18 18 19 19 18 16 16 15 16 17 18 19 20 20 20 17 14 12 13 13 13 13 13 15 16 17 18 18 19 19 20 19
11 10 10 9 9 10 10 10 10 10 11 12 13 13 14 15 15 15 15 15 15 16 16 17 17 17 18 18 17 17 17 17 17 17 16 17 18 18 19 18 18 17 16 16 16 17 18 19 20 21 21 21 18 16 15 15 15 14 15 16 18 19 19 17 17 19 20 21 20
10 9 9 9 9 9 9 10 10 10 11 12 13 14 14 15 15 15 15 15 15 15 16 17 17 17 17 17 18 18 18 17 17 17 17 18 18 19 19 18 16 15 15 16 17 18 19 21 21 22 22 22 19 17 16 16 14 14 14 15 17 18 20 20 20 20 20 21 20
9 9 9 9 9 9 9 10 10 11 12 13 13 14 14 15 15 16 15 14 14 14 15 15 16 16 16 17 17 17 17 15 16 17 18 18 18 19 18 16 13 13 15 17 18 20 21 22 22 23 23 22 18 16 15 16 15 14 14 16 17 18 19 20 21 21 21 21 20
9 9 9 9 9 9 10 10 11 12 12 13 14 14 15 15 16 16 15 15 14 15 15 15 15 16 16 16 16 17 16 16 16 17 17 17 17 18 18 17 15 16 18 19 20 21 22 22 23 23 23 20 16 14 14 16 15 15 16 17 18 19 19 20 20 20 20 21 20
7 7 7 7 9 10 11 11 12 12 13 13 13 14 15 15 15 15 15 14 15 15 15 15 16 16 16 16 16 16 16 16 17 17 16 16 17 17 17 17 17 18 20 21 21 22 22 23 23 23 22 18 14 12 12 13 13 14 16 17 18 18 19 19 19 19 19 19 19
6 6 6 7 9 10 11 11 12 13 13 13 14 14 15 15 15 15 14 14 14 15 15 16 16 16 17 16 16 16 16 17 17 16 16 15 16 16 17 17 18 19 19 21 22 22 22 23 23 23 21 17 14 12 12 12 11 12 14 16 17 17 18 17 17 18 18 19 19
6 7 7 8 9 10 11 11 12 13 14 14 14 15 15 15 14 14 13 13 14 15 15 16 16 16 17 17 16 16 17 17 16 16 15 15 15 15 16 17 18 18 19 20 22 22 23 23 24 23 21 16 14 13 12 11 11 12 13 13 14 15 16 15 14 14 16 18 19
7 8 9 10 10 11 11 12 13 13 14 14 14 14 14 14 13 13 13 12 13 14 15 16 17 17 17 17 16 16 16 16 16 15 15 15 15 15 16 17 18 18 19 20 22 23 23 23 24 23 21 17 14 12 11 10 11 12 13 13 13 14 15 14 13 12 13 16 19
8 9 10 10 10 11 12 13 13 13 13 13 14 14 14 14 13 13 13 12 13 14 15 15 17 17 17 16 16 16 16 16 15 15 14 15 15 16 17 17 18 19 19 21 22 23 23 23 23 23 21 16 13 11 10 10 11 12 12 12 12 12 12 12 11 11 12 14 16
8 9 10 10 11 11 12 13 13 13 13 13 14 13 13 13 13 13 13 13 14 14 14 14 16 17 17 16 15 15 15 15 15 15 15 15 16 17 17 17 17 18 19 20 21 22 22 22 22 22 20 16 13 11 10 10 11 12 12 12 11 11 10 11 11 11 11 12 12
Wind_Direction
184 167 153 149 148 155 159 150 134 135 158 175 187 191 195 204 227 247 262 274 276 279 281 283 286 288 289 290 290 291 292 293 295 296 297 297 297 296 296 294 292 289 287 285 284 283 282 281 280 279 277 276 276 275 274 273 274 274 273 272 272 272 272 272 271 270 270 270 270
163 150 139 132 138 145 148 140 135 144 166 179 187 196 210 229 255 269 278 282 284 287 288 288 288 288 288 289 290 292 293 294 296 296 296 296 295 294 293 291 288 286 284 283 282 281 280 279 278 277 276 275 275 275 274 272 272 272 271 270 270 270 270 269 269 269 269 269 268
151 144 139 140 148 154 157 157 163 176 186 186 179 184 206 242 265 275 279 282 284 285 285 284 285 287 289 292 294 294 293 294 294 295 294 294 293 292 291 289 288 286 285 283 281 280 278 278 277 276 275 274 274 274 274 274 272 272 272 271 271 270 269 269 269 268 268 267 266
145 143 146 154 164 169 172 174 181 186 187 176 167 174 201 245 264 271 275 279 280 279 279 281 285 290 294 295 292 290 289 289 291 291 292 292 291 291 290 289 288 287 286 284 283 282 281 280 279 277 276 275 275 274 273 273 272 271 271 271 271 270 270 270 269 269 268 267 266
144 148 156 166 176 179 178 178 182 178 166 144 158 192 233 256 263 268 270 274 276 279 284 290 294 297 295 289 286 286 286 288 289 290 290 290 290 289 288 287 286 286 285 284 283 282 281 280 278 276 275 274 274 273 272 273 272 272 271 271 270 270 270 270 269 269 268 267 266
148 153 161 171 177 173 163 156 153 144 134 138 199 240 257 264 270 276 280 282 285 289 292 296 296 291 286 283 283 284 286 287 288 288 287 287 287 286 285 284 284 283 282 280 279 278 277 276 274 272 271 270 269 269 270 271 271 271 270 269 269 268 268 268 269 269 268 267 267
155 158 161 162 157 147 139 138 138 144 162 197 230 249 264 275 281 285 286 289 290 291 291 290 284 281 280 281 283 285 287 287 286 286 285 284 283 283 283 282 282 281 279 278 278 277 275 274 272 270 269 268 268 267 267 267 267 267 268 268 268 267 268 268 269 269 269 269 269
160 160 159 153 147 144 146 150 161 181 206 229 251 267 277 283 282 282 282 283 282 281 281 278 278 279 280 282 284 285 285 285 284 283 282 281 281 281 281 280 280 279 278 278 277 277 275 274 272 271 270 268 267 267 266 266 266 266 267 267 268 267 267 268 267 267 268 268 268
159 157 154 148 148 152 160 170 189 212 235 255 271 279 282 281 279 277 276 274 274 274 275 274 276 277 279 280 280 280 280 280 279 279 278 278 278 278 277 277 276 276 275 274 274 273 273 272 270 269 268 268 267 267 268 268 268 268 267 267 267 266 266 266 266 266 266 267 267
156 154 153 152 156 164 175 191 213 234 254 271 279 281 281 278 275 272 269 267 268 268 269 270 272 274 274 275 275 274 274 274 274 274 274 273 273 273 273 273 273 273 272 272 272 272 272 271 270 269 269 268 269 269 270 270 269 269 268 267 267 266 266 266 266 266 266 266 266
154 154 155 159 167 178 194 216 238 256 270 278 281 281 280 276 272 268 266 265 265 265 266 267 269 270 271 271 271 271 271 271 271 272 272 273 272 273 273 273 273 274 274 274 274 274 274 273 272 271 271 270 270 271 271 270 270 269 268 267 267 267 267 266 266 266 265 265 265
153 155 159 168 180 198 221 246 264 274 279 280 280 279 278 275 272 270 269 268 267 268 269 271 272 273 273 273 273 273 273 273 273 274 274 275 275 275 275 275 275 276 276 276 276 276 274 273 272 271 271 270 270 270 270 269 269 268 268 267 267 266 266 266 265 265 265 265 265
154 159 169 186 203 225 247 264 273 278 279 279 278 276 275 273 272 272 271 271 271 272 274 276 277 277 277 277 277 277 277 277 277 277 277 277 277 277 277 277 276 276 276 276 276 275 273 272 271 271 270 270 269 268 268 268 268 268 267 267 266 266 266 266 266 266 266 266 266
163 173 190 213 234 251 263 271 275 277 278 277 274 273 272 272 271 272 273 274 275 277 278 280 280 279 279 279 280 280 280 280 279 279 279 278 278 278 277 277 276 276 275 275 273 272 270 270 269 269 269 269 268 268 267 267 267 267 267 267 266 266 266 266 266 267 267 267 267
185 203 223 241 253 262 268 272 274 275 275 273 270 269 269 270 271 272 274 277 278 280 281 281 281 280 280 280 280 280 281 280 280 280 279 279 278 277 276 276 275 274 274 272 271 269 268 268 268 268 268 268 268 267 267 266 266 266 266 266 266 266 267 267 267 268 268 268 268
211 229 243 251 256 260 263 267 268 268 266 265 264 265 266 268 272 274 277 278 279 280 280 280 280 281 281 281 281 281 281 280 280 280 279 278 278 277 276 276 275 274 274 273 271 270 268 267 267 267 267 267 267 267 267 267 266 266 266 266 266 267 268 268 269 269 270 270 270
229 241 249 254 255 255 255 256 257 257 257 258 261 264 267 271 275 277 278 279 279 279 279 279 280 282 283 283 282 282 282 281 280 280 279 279 279 278 278 277 276 276 275 274 273 272 270 268 267 267 266 266 267 267 267 267 267 267 267 267 268 268 269 270 271 271 271 272 271
240 245 249 251 250 249 248 248 248 250 253 257 261 265 269 273 277 279 280 280 279 279 279 279 280 281 282 282 282 282 281 281 281 280 279 279 279 279 278 278 277 276 276 275 274 273 272 271 270 269 268 267 267 267 267 267 267 267 268 268 269 270 271 272 272 272 272 272 271
243 244 245 246 245 243 243 243 245 248 253 258 264 268 272 275 278 279 279 279 278 278 279 280 280 280 280 280 280 279 279 279 279 279 279 279 278 278 278 277 277 276 275 274 274 273 273 272 271 270 269 269 268 267 267 267 267 267 268 269 271 272 272 273 273 272 272 271 271
244 245 245 245 245 244 244 245 248 252 257 263 267 272 275 277 278 278 278 278 278 279 280 280 280 280 280 280 280 280 280 279 279 279 278 278 278 277 277 277 276 276 275 275 274 273 273 272 272 271 270 269 268 267 267 267 267 269 270 272 273 273 274 273 272 271 270 269 268
248 250 251 252 251 250 250 251 254 259 263 267 271 273 275 277 277 276 277 278 279 280 280 279 279 280 281 282 282 283 283 282 281 280 279 278 277 277 277 277 277 277 276 275 274 273 272 272 271 271 270 269 268 268 269 270 271 273 273 274 274 273 273 272 271 269 268 266 265
257 260 261 260 259 257 257 258 261 264 267 269 271 272 273 274 274 274 275 276 277 278 278 279 281 283 284 285 285 285 285 284 282 281 279 278 277 277 277 277 276 275 274 273 272 272 271 271 270 269 269 268 268 269 270 271 273 274 274 274 273 272 271 270 268 267 266 264 263
267 267 266 265 262 261 260 261 263 264 266 268 269 270 271 271 272 274 275 276 277 279 280 282 285 286 287 287 286 286 285 284 281 279 278 277 276 276 275 275 274 273 272 272 271 271 271 271 271 270 271 271 272 273 273 274 275 275 275 274 273 272 270 268 267 266 265 264 263
272 270 267 264 262 261 260 260 262 264 267 269 271 272 273 274 276 277 278 279 280 282 284 285 285 286 286 286 286 285 284 283 281 279 277 276 276 275 275 274 273 272 272 271 270 270 271 273 274 275 276 277 278 279 279 279 278 277 276 276 274 272 270 268 266 265 264 263 263
271 268 264 261 259 258 259 260 263 266 270 273 276 278 279 280 281 282 283 284 284 285 285 285 285 286 286 285 284 283 282 281 279 278 277 276 275 275 274 274 273 273 272 271 270 270 270 270 273 276 278 280 281 281 280 279 277 276 275 273 272 271 269 267 266 264 263 262 262
265 262 258 255 254 255 257 260 264 269 273 277 280 282 284 285 287 288 288 288 288 288 287 287 287 286 285 284 283 281 280 278 277 277 277 276 276 276 275 274 274 273 272 272 271 270 269 268 269 272 276 279 279 278 277 275 274 272 271 269 268 267 267 266 265 264 263 262 261
258 256 253 252 253 255 258 263 268 272 276 279 282 285 288 291 293 293 293 291 290 289 288 287 286 284 282 280 279 278 277 277 277 277 277 278 278 278 277 276 275 274 274 273 272 272 271 272 273 276 278 280 279 279 277 276 274 272 269 267 266 265 265 265 265 265 264 263 262
255 253 252 252 254 258 262 267 272 275 279 282 285 289 293 295 295 294 293 292 291 290 288 287 285 283 281 279 279 279 280 280 280 281 280 280 280 279 279 278 277 276 275 275 275 275 277 280 284 286 287 286 284 282 280 278 275 272 269 266 265 265 264 265 265 265 265 265 264
254 253 253 253 256 260 265 270 273 277 281 286 290 293 295 295 294 293 292 291 291 291 290 289 288 286 285 285 285 286 285 284 283 283 282 281 281 281 280 281 280 280 279 279 280 283 288 293 295 294 292 290 287 283 280 276 274 271 268 266 265 264 264 265 265 264 264 264 264
254 253 252 253 257 261 266 270 275 280 285 290 292 293 294 293 293 292 292 292 292 292 293 293 292 290 289 288 288 287 286 285 284 284 284 284 284 284 283 283 283 283 284 285 289 295 299 300 298 295 292 289 285 281 277 274 271 269 267 266 264 264 265 265 266 266 266 265 265
252 252 252 254 257 262 266 272 278 284 288 291 292 293 293 293 293 293 293 294 294 294 294 294 292 291 290 289 288 287 287 287 287 288 288 288 287 287 287 286 286 286 288 292 297 300 301 298 295 292 289 286 282 278 273 271 269 267 266 265 264 264 264 265 265 265 266 266 266
249 250 253 256 260 265 271 278 283 288 290 291 292 292 293 293 293 294 295 296 296 295 295 294 292 291 290 290 290 290 290 291 291 291 290 290 290 289 289 288 288 289 292 297 300 300 297 294 291 288 285 282 279 275 272 270 268 266 265 264 264 264 264 264 264 264 264 264 264
249 254 260 264 269 274 280 286 289 291 291 291 291 292 292 293 294 295 295 295 295 294 294 293 293 292 292 292 292 292 292 292 292 291 291 290 290 290 290 290 290 292 295 299 298 295 292 289 287 285 283 280 278 275 272 270 268 266 265 264 264 264 263 263 262 262 262 262 262
252 259 265 271 277 282 287 289 290 291 291 290 291 292 293 294 295 295 295 294 294 294 293 293 293 293 293 293 293 293 293 292 292 291 291 291 291 291 292 293 294 295 296 296 294 291 289 287 285 284 282 281 278 275 273 271 269 267 266 265 265 264 263 262 262 262 261 261 260
252 259 267 275 281 285 287 289 289 290 290 291 292 293 293 294 294 294 294 294 294 294 294 293 293 293 293 293 292 292 292 292 291 291 291 292 293 294 295 296 295 295 294 294 292 290 288 287 285 284 283 282 280 276 274 273 271 269 268 267 266 265 264 263 262 261 260 259 258
263 271 278 283 283 284 284 286 288 289 290 292 292 293 293 293 293 294 295 296 296 295 295 294 294 294 293 293 293 292 292 292 292 293 294 295 296 297 297 297 295 294 294 292 291 289 288 287 286 285 285 283 280 277 274 273 271 270 269 268 267 266 265 264 262 260 258 257 255
283 286 286 283 281 281 283 285 288 290 292 293 293 293 293 294 295 296 297 298 298 297 296 296 295 294 294 294 294 294 294 294 295 296 297 298 299 299 298 296 295 294 292 291 290 289 288 287 286 285 285 283 280 277 275 273 272 271 270 270 269 268 266 265 263 260 257 255 253
291 291 289 285 285 286 288 289 291 292 293 294 294 295 296 297 298 298 299 299 299 297 297 296 295 295 295 296 295 295 295 295 296 297 298 299 300 299 298 296 294 292 291 290 289 288 287 286 285 284 283 281 280 279 277 275 273 272 271 271 270 269 268 266 264 262 259 256 253
299 297 295 294 293 293 293 293 292 293 294 295 296 297 298 299 299 300 300 299 298 297 296 295 295 296 296 297 296 296 295 296 297 298 300 301 301 299 297 294 292 291 290 289 288 287 285 284 283 282 281 280 279 279 277 275 274 273 272 271 272 272 272 271 269 267 265 261 257
301 299 297 297 295 295 294 293 294 295 296 297 298 299 299 300 299 299 299 297 296 295 295 295 296 296 297 297 296 296 297 298 300 302 303 303 300 298 294 291 289 288 288 287 286 285 284 282 282 282 282 281 280 279 277 275 274 273 273 273 275 276 278 279 277 275 272 269 264
297 296 296 295 294 294 294 295 296 297 299 299 300 300 300 300 299 298 298 297 297 297 297 296 297 297 297 297 297 298 300 302 303 304 303 302 298 295 291 288 287 286 286 286 285 284 283 283 283 284 284 282 281 279 277 275 275 275 276 279 283 286 289 290 288 285 281 277 273